Location: Fairmont
(43.6520°N, 94.4610°W)
Time: 04:33:41
(UTC-06:00)

Daily predictions for brighter satellites

Satellite Brightness Start Highest point End
(mag) Time Altitude Azimuth Time Altitude Azimuth Time Altitude Azimuth
CENTAUR R/B 3.4 04:27:39 42° NNE 04:27:39 42° NNE 04:32:16 10° NE
Cosmos 2369 Rocket 4.2 04:28:50 19° NNE 04:31:05 24° NE 04:35:37 10° ESE
Lacrosse 5 3.7 04:34:49 24° SSE 04:36:09 27° SE 04:40:26 10° ENE
Meteor 1-18 Rocket 4.3 04:47:22 77° SE 04:47:22 77° SE 04:52:55 10° SSE
Feng Yun 1-1 Rocket 4.5 04:42:46 10° NNE 04:48:22 67° ESE 04:53:48 10° S
COSMO-SKYMED 1 4.2 04:48:06 10° SE 04:51:59 33° ENE 04:53:19 27° NE
Meteor 1-20 Rocket 4.3 04:49:44 10° S 04:55:16 73° E 05:00:46 10° NNE
Cosmos 2333 Rocket 4.4 05:04:12 11° N 05:04:12 11° N 05:04:36 10° N
Lacrosse 5 rocket 3.9 05:06:47 12° NNE 05:06:47 12° NNE 05:07:30 10° NNE
Cosmos 1300 Rocket 4.4 05:06:17 10° SSE 05:10:34 50° E 05:14:50 10° NNE
Tiangong 2 3.4 05:12:41 25° E 05:12:41 25° E 05:14:09 10° E
Cosmos 1943 Rocket 4.1 05:09:03 10° N 05:13:20 23° NE 05:17:41 10° ESE
Cosmos 1633 4.0 05:12:56 10° SSE 05:16:19 37° E 05:19:41 10° NNE
SL-08 ROCKET BODY 4.2 05:11:37 10° SSW 05:17:35 74° W 05:23:29 10° N
SL-16 R/B 3.2 05:22:03 30° NNW 05:22:03 30° NNW 05:25:30 10° NNE
Cosmos 2327 Rocket 4.4 05:14:26 10° SSW 05:20:49 76° W 05:27:08 10° N
Cosmos 2074 Rocket 3.9 05:23:56 10° SSW 05:30:08 61° W 05:36:21 10° N
Cosmos 1602 4.1 05:26:16 10° S 05:30:11 67° E 05:34:08 10° NNE
Cosmos 2056 Rocket 3.3 05:33:57 44° NW 05:35:29 67° WSW 05:40:32 10° S
ADEOS II 4.1 05:32:04 10° N 05:32:51 14° N 05:32:51 14° N
Meteor 1-25 Rocket 4.5 05:32:21 10° SW 05:37:54 45° WNW 05:43:27 10° N
SKYMED 2 3.4 05:35:37 10° S 05:39:56 77° WSW 05:41:57 32° NNW
Meteor 1-11 Rocket 3.9 05:34:29 10° S 05:40:19 76° E 05:46:03 10° NNE
USA 129 4.4 05:41:06 10° ESE 05:42:44 19° ENE 05:42:48 19° ENE
Abrixas rocket 2.7 05:43:15 49° SSW 05:43:49 59° SSE 05:47:08 10° ENE
Cosmos 1346 Rocket 4.1 05:47:10 25° SW 05:47:10 25° SW 05:49:12 10° SSW
Meteor 1-28 Rocket 3.5 05:42:22 10° SSE 05:46:07 65° ENE 05:49:17 14° N
Cosmos 2184 Rocket 4.1 05:41:27 10° SSW 05:47:22 47° WNW 05:53:21 10° N
Cosmos 1624 Rocket 4.2 05:47:20 35° WNW 05:48:59 47° WSW 05:54:03 10° S
Ariane Rocket 3.1 05:44:20 10° NNE 05:49:24 76° ESE 05:54:27 10° S
Meteor 1-13 Rocket 4.3 05:44:09 10° NNW 05:50:05 69° W 05:55:58 10° S
Cosmos 2237 Rocket 4.3 05:52:11 11° NNW 05:52:11 11° NNW 05:52:36 10° NNW
DMSP B5D1-3 4.4 05:47:14 10° S 05:52:22 76° WSW 05:57:34 10° NNW
USA 215 3.2 05:50:02 10° NE 05:56:34 81° NW 06:03:06 10° WSW
Cosmos 1340 4.2 05:53:57 10° N 05:57:30 37° ENE 06:01:02 10° SE
Meteor 1-23 Rocket 4.4 05:52:15 10° N 05:57:49 72° ENE 06:03:21 10° SSE
Radarsat Rocket 4.4 05:52:06 10° NNE 05:59:07 73° WNW 06:07:03 10° SSW
CSL-04 Rocket 3.9 05:54:40 10° NNE 06:00:15 76° ESE 06:05:45 10° S
Okean 2 4.3 05:58:06 10° N 06:02:12 50° ENE 06:06:14 10° SSE
Cosmos 2154 Rocket 3.9 05:56:55 10° SSW 06:03:04 68° W 06:09:16 10° N
CZ-2C R/B 4.3 05:58:50 10° NNE 06:03:33 34° E 06:08:08 10° SSE
CSL-04 Debris 4.5 05:59:18 10° NNE 06:04:46 71° ESE 06:10:13 10° S
Cosmos 1025 Rocket 3.0 06:01:40 10° N 06:06:05 88° WSW 06:10:26 10° S
Meteor 2-4 Rocket 3.6 06:02:56 10° NNW 06:08:28 80° W 06:14:07 10° S
IDEFIX/ARIANE 42P 4.1 06:05:20 10° NNE 06:10:10 38° E 06:14:59 10° SSE
Cosmos 2369 Rocket 2.2 06:10:40 14° NNW 06:15:33 61° WSW 06:21:09 10° S
Cosmos 44 Rocket 3.5 06:10:52 10° SW 06:15:55 53° NW 06:20:56 10° NNE
CENTAUR R/B 3.9 06:14:52 18° NW 06:17:24 22° NNW 06:22:54 10° NNE
CZ-4 R/B 2.1 06:13:53 10° NNE 06:17:46 53° E 06:21:35 10° S
Cosmos 1603 4.2 06:12:56 10° WSW 06:18:07 35° NW 06:23:18 10° N
Lacrosse 5 1.9 06:14:07 12° WSW 06:18:50 59° NW 06:23:53 10° NE
Meteor 1-5 Rocket 4.2 06:14:22 10° S 06:19:42 77° E 06:25:00 10° NNE
Cosmos 1536 2.9 06:17:16 10° SSW 06:21:09 50° WNW 06:25:04 10° N
Okean 1 Rocket 3.6 06:18:12 10° SW 06:22:13 34° WNW 06:26:14 10° N
Meteor 2-8 Rocket 4.5 06:16:20 10° N 06:22:31 89° E 06:28:41 10° S
Cosmos 1900 4.3 06:18:59 13° NNW 06:23:19 88° WSW 06:28:16 10° SSE
ATLAS 5 CENTAUR R/B 4.4 06:21:52 10° N 06:24:23 13° NNE 06:26:59 10° NE
SL-24 DEB 4.4 06:19:53 10° S 06:24:33 53° W 06:29:16 10° NNW
Cosmos 1452 Rocket 3.6 06:19:34 10° NNW 06:24:45 59° WSW 06:29:55 10° S
Cosmos 1544 Rocket 3.9 06:20:59 10° S 06:25:18 67° E 06:29:40 10° NNE
COSMO-SKYMED 1 3.7 06:24:41 10° SSW 06:28:11 24° W 06:30:31 16° NW
SJ-12 4.4 06:24:52 10° NNE 06:29:01 66° E 06:33:08 10° S
SL-8 Rocket 4.0 06:28:06 10° S 06:34:22 83° W 06:40:38 10° N
IRS-1A Rocket 4.3 06:31:37 10° NNE 06:37:20 79° WNW 06:43:08 10° SSW
Lacrosse 4 Rocket 1.9 06:34:19 10° NNW 06:38:26 56° ENE 06:42:26 10° SE
ATLAS 3B R/B 4.5 06:36:33 10° NNW 06:41:23 19° NNE 06:46:03 10° ENE
Cosmos 1943 3.4 06:36:35 10° SW 06:42:00 47° WNW 06:47:28 10° NNE
Cosmos 839 Rocket 4.1 06:38:46 10° NNW 06:45:28 88° WSW 06:51:36 10° SSE
Lacrosse 5 rocket 3.6 06:43:08 10° NNW 06:45:39 15° N 06:48:14 10° NE
Cosmos 1515 4.3 06:42:04 10° N 06:45:54 59° E 06:49:39 10° SSE
Cosmos 2366 rocket 4.1 06:40:02 10° S 06:46:20 90° ENE 06:52:44 10° N
Tiangong 2 1.7 06:44:45 12° W 06:47:29 46° SSW 06:50:31 10° ESE
Cosmos 1892 Rocket 3.7 06:43:41 10° NNW 06:48:03 55° W 06:52:24 10° S
Cosmos 1959 Rocket 4.4 06:42:28 10° SSW 06:48:34 77° W 06:54:42 10° N
Cosmos 1633 4.3 06:49:30 10° WSW 06:51:30 14° WNW 06:53:31 10° NW
Cosmos 2218 Rocket 4.0 06:46:55 10° SSW 06:53:18 72° W 06:59:43 10° N
Cosmos 1943 Rocket 2.3 06:52:04 10° NNW 06:57:29 59° WSW 07:02:52 10° S
PAYLOAD A 4.3 06:54:44 10° N 06:59:56 52° WNW 07:05:11 10° SW
Cosmos 1626 Rocket 3.9 06:57:21 10° N 07:01:48 74° E 07:06:11 10° SSE
Helios 1B rocket 2.7 06:59:33 10° S 07:03:36 52° W 07:07:40 10° NNW
Cosmos 1269 Rocket 4.1 06:59:15 10° SSW 07:04:28 62° WNW 07:09:45 10° NNE
Cosmos 1975 2.9 07:01:26 10° S 07:05:32 85° W 07:09:39 10° N
Cosmos 158 Rocket 4.1 07:01:34 10° SSW 07:06:52 89° ESE 07:12:17 10° NNE
Cosmos 1743 4.3 07:06:36 10° SSE 07:10:17 41° E 07:14:00 10° NNE
MSX 4.0 07:06:41 10° NNE 07:12:28 86° ESE 07:18:13 10° SSW
